Regional Weather Roundup
Issued by NWS

Home | Current Version | Previous Version | Graphics & Text | Print | Product List | Glossary On
Versions: 1 2 3 4 5 6 7 8 9 10 11 12 13 14 15 16 17 18 19 20 21 22 23 24 25 26 27 28 29 30 31 32 33 34 35 36 37 38 39 40 41 42 43 44 45 46 47 48 49 50
000
ASUS43 KDMX 290107
RWRIA

WEATHER ROUNDUP FOR IOWA
NATIONAL WEATHER SERVICE DES MOINES IA
700 PM CST SUN DEC 28 2014

NOTE: "FAIR" INDICATES FEW OR NO CLOUDS BELOW 12,000 FEET WITH NO
SIGNIFICANT WEATHER AND/OR OBSTRUCTIONS TO VISIBILITY.

* - THESE STATIONS ARE NOT NWS STATIONS...THUS NOT UNDER NWS
QUALITY CONTROL.  THEY ALSO DO NOT REPORT WEATHER SUCH
AS PRECIPITATION OR FOG.

IAZ001>003-012>014-020>022-031>034-043>046-290200-
   NORTHWEST IOWA

CITY           SKY/WX    TMP DP  RH WIND       PRES   REMARKS
CARROLL *      PTCLDY    21  19  93 N10       30.17R WCI  10
CHEROKEE *     MOCLDY    19  18  93 NE3       30.19R
DENISON *      CLOUDY    23  21  93 NE7       30.14S WCI  15
LE MARS *      CLOUDY    21  18  86 NE7       30.20R WCI  13
ORANGE CITY *  CLEAR     19  16  86 NE7       30.18R WCI  10
SHELDON *      CLOUDY    18  18 100 NE12      30.18R WCI   5
SIOUX CITY     CLOUDY    21  15  78 NE6       30.20R WCI  13
SPENCER        CLOUDY    19  15  84 NE12      30.20R WCI   7
STORM LAKE *   PTCLDY    18  16  93 E9        30.17R WCI   6
$$

IAZ055>058-069>071-079>083-090>094-290200-
   SOUTHWEST IOWA

CITY           SKY/WX    TMP DP  RH WIND       PRES   REMARKS
ATLANTIC *     CLOUDY    28  25  86 CALM      30.15R
AUDUBON *      CLEAR     27  19  74 NE6       30.15R WCI  20
CLARINDA *     CLOUDY    32  28  86 CALM      30.16R
COUNCIL BLFS * CLOUDY    28  27  93 N7        30.13R WCI  21
CRESTON *      MOCLDY    30  25  80 CALM      30.15R
HARLAN  *      MOCLDY    28  28 100 NE5       30.18R WCI  23
LAMONI         MOCLDY    33  17  51 SW5       30.15R WCI  29
RED OAK *      CLOUDY    30  25  80 N5        30.15R WCI  25
SHENANDOAH *   MOCLDY    30  27  86 NE7       30.15R WCI  23
$$

IAZ047>049-059>061-072>074-084-290200-
   CENTRAL IOWA

CITY           SKY/WX    TMP DP  RH WIND       PRES   REMARKS
AMES           PTCLDY    25  21  85 N7        30.18R WCI  17
ANKENY *       PTCLDY    28  23  80 N5        30.18R WCI  23
CHARITON *     CLOUDY    32  21  64 NE5       30.16R WCI  27
DES MOINES     CLOUDY    31  22  69 NE8       30.18R WCI  23
GRINNELL*      PTCLDY    28  23  80 E3        30.18R
KNOXVILLE *    CLOUDY    30  21  69 CALM      30.16R
MARSHALLTOWN   PTCLDY    26  23  88 NE6       30.18R WCI  19
PELLA *        PTCLDY    30  23  74 CALM      30.19R
PERRY *          N/A     28  25  86 N7        30.17R WCI  21
$$

IAZ004>006-015-016-023>025-035-036-290200-
   NORTH CENTRAL IOWA

CITY           SKY/WX    TMP DP  RH WIND       PRES   REMARKS
ALGONA *       CLEAR     18  16  93 NE9G15    30.21R WCI   6
CLARION *      CLEAR     16  16 100 NE7       30.19R WCI   6
ESTHERVILLE    CLOUDY    16  15  96 N14       30.20R FOG     WCI   2
FORT DODGE *   MOCLDY    18  12  79 CALM      30.20R
MASON CITY     MOCLDY    12   9  87 NE6       30.22R WCI   3
FOREST CITY *  CLEAR     18  12  79 N3        30.20R
IOWA FALLS *     N/A     25  21  86 N5        30.20R WCI  19
$$

IAZ007>011-017>019-026>030-037>042-050>054-066-290200-
   NORTHEAST IOWA

CITY           SKY/WX    TMP DP  RH WIND       PRES   REMARKS
CEDAR RAPIDS   PTCLDY    27  17  66 NE5       30.18R WCI  22
CHARLES CITY * CLEAR     18  16  93 N9        30.21R WCI   6
CLINTON *      CLEAR     25  18  74 CALM      30.23R
DECORAH *      CLEAR     21  16  79 N5        30.19R WCI  15
DUBUQUE        CLEAR     24  15  68 N5        30.18R WCI  18
MONTICELLO *   CLEAR     25  19  80 CALM      30.19S
OELWEIN *      PTCLDY    27  21  80 N7        30.19R WCI  19
WATERLOO         N/A     25  21  85 N7        30.19R WCI  17
$$

IAZ064-065-067-068-078-290200-
   EAST CENTRAL IOWA

CITY           SKY/WX    TMP DP  RH WIND       PRES   REMARKS
DAVENPORT      CLEAR     25  18  74 CALM      30.20R
IOWA CITY      PTCLDY    24  18  77 CALM      30.21R
MT. PLEASANT * CLEAR     28  16  59 CALM      30.20R
MUSCATINE *    CLEAR     27  19  74 N3        30.21R
QUAD CITIES    CLEAR     25  18  74 CALM      30.20R
$$

IAZ062-063-075>077-085>089-095>099-290200-
   SOUTHEAST IOWA

CITY           SKY/WX    TMP DP  RH WIND       PRES   REMARKS
BURLINGTON     CLEAR     28  18  66 CALM      30.19R
FAIRFIELD *    PTCLDY    27  18  69 E3        30.19R
FORT MADISON * CLEAR     30  19  64 SE3       30.20S
KEOKUK *       CLEAR     27  16  63 CALM      30.19R
OSKALOOSA *      N/A     28  19  69 SE5       30.19R WCI  23
CENTERVILLE *  CLEAR     28  21  74 S3        30.18R
OTTUMWA        CLEAR     27  18  69 E3        30.18R
WASHINGTON *   CLEAR     27  18  69 E5        30.19S WCI  21
$$

ABBREVIATIONS USED IN REMARKS
   TC - TEMPERATURES IN CELSIUS
  WCI - WIND CHILL INDEX
   HX - HEAT INDEX
  VSB - VISIBILITY
$$



USA.gov is the U.S. government's official web portal to all federal, state and local government web resources and services.